Time,TemperatureF,DewpointF,PressureIn,WindDirection,WindDirectionDegrees,WindSpeedMPH,WindSpeedGustMPH,Humidity,HourlyPrecipIn,Conditions,Clouds,dailyrainin,SoftwareType,DateUTC
2013-07-17 00:00:00,62.0,-99.9,-100.00,South,185,5.0,11.0,-999,-99.99,,,-99.99,,2013-07-17 06:00:00,
2013-07-17 00:52:00,62.0,-99.9,-100.00,South,185,5.0,11.0,-999,-99.99,,,-99.99,,2013-07-17 06:52:00,
2013-07-17 01:00:00,60.0,-99.9,-100.00,South,185,4.0,7.0,-999,-99.99,,,-99.99,,2013-07-17 07:00:00,
2013-07-17 01:52:00,60.0,-99.9,-100.00,South,185,4.0,7.0,-999,-99.99,,,-99.99,,2013-07-17 07:52:00,
2013-07-17 02:00:00,60.0,-99.9,-100.00,South,185,1.0,5.0,-999,-99.99,,,-99.99,,2013-07-17 08:00:00,
2013-07-17 02:53:00,60.0,-99.9,-100.00,South,185,1.0,5.0,-999,-99.99,,,-99.99,,2013-07-17 08:53:00,
2013-07-17 03:00:00,59.0,-99.9,-100.00,South,185,4.0,8.0,-999,-99.99,,,-99.99,,2013-07-17 09:00:00,
2013-07-17 03:52:00,59.0,-99.9,-100.00,South,185,4.0,8.0,-999,-99.99,,,-99.99,,2013-07-17 09:52:00,
2013-07-17 04:00:00,57.0,-99.9,-100.00,South,185,2.0,6.0,-999,-99.99,,,-99.99,,2013-07-17 10:00:00,
2013-07-17 04:52:00,57.0,-99.9,-100.00,South,185,2.0,6.0,-999,-99.99,,,-99.99,,2013-07-17 10:52:00,
2013-07-17 05:00:00,57.0,-99.9,-100.00,South,185,5.0,8.0,-999,-99.99,,,-99.99,,2013-07-17 11:00:00,
2013-07-17 05:52:00,57.0,-99.9,-100.00,South,185,5.0,8.0,-999,-99.99,,,-99.99,,2013-07-17 11:52:00,
2013-07-17 06:00:00,57.0,-99.9,-100.00,South,185,4.0,5.0,-999,-99.99,,,-99.99,,2013-07-17 12:00:00,
2013-07-17 06:53:00,57.0,-99.9,-100.00,South,185,4.0,5.0,-999,-99.99,,,-99.99,,2013-07-17 12:53:00,
2013-07-17 07:00:00,60.0,-99.9,-100.00,South,185,4.0,8.0,-999,-99.99,,,-99.99,,2013-07-17 13:00:00,
2013-07-17 07:53:00,60.0,-99.9,-100.00,South,185,4.0,8.0,-999,-99.99,,,-99.99,,2013-07-17 13:53:00,
2013-07-17 08:00:00,64.0,-99.9,-100.00,South,185,16.0,18.0,-999,-99.99,,,-99.99,,2013-07-17 14:00:00,
2013-07-17 08:52:00,64.0,-99.9,-100.00,South,185,16.0,18.0,-999,-99.99,,,-99.99,,2013-07-17 14:52:00,
2013-07-17 09:00:00,68.0,-99.9,-100.00,South,185,2.0,13.0,-999,-99.99,,,-99.99,,2013-07-17 15:00:00,
2013-07-17 09:52:00,68.0,-99.9,-100.00,South,185,2.0,13.0,-999,-99.99,,,-99.99,,2013-07-17 15:52:00,
2013-07-17 10:00:00,71.0,-99.9,-100.00,South,185,6.0,21.0,-999,-99.99,,,-99.99,,2013-07-17 16:00:00,
2013-07-17 10:52:00,71.0,-99.9,-100.00,South,185,6.0,21.0,-999,-99.99,,,-99.99,,2013-07-17 16:52:00,
2013-07-17 11:00:00,73.0,-99.9,-100.00,South,185,7.0,24.0,-999,-99.99,,,-99.99,,2013-07-17 17:00:00,
2013-07-17 11:52:00,73.0,-99.9,-100.00,South,185,7.0,24.0,-999,-99.99,,,-99.99,,2013-07-17 17:52:00,
2013-07-17 12:00:00,77.0,-99.9,-100.00,South,185,10.0,22.0,-999,-99.99,,,-99.99,,2013-07-17 18:00:00,
2013-07-17 12:43:00,77.0,-99.9,-100.00,South,185,12.0,21.0,-999,-99.99,,,-99.99,,2013-07-17 18:43:00,
2013-07-17 12:52:00,77.0,-99.9,-100.00,South,185,10.0,22.0,-999,-99.99,,,-99.99,,2013-07-17 18:52:00,
2013-07-17 13:00:00,80.0,-99.9,-100.00,South,185,9.0,19.0,-999,-99.99,,,-99.99,,2013-07-17 19:00:00,
2013-07-17 13:43:00,80.0,-99.9,-100.00,South,185,3.0,23.0,-999,-99.99,,,-99.99,,2013-07-17 19:43:00,
2013-07-17 13:53:00,80.0,-99.9,-100.00,South,185,9.0,19.0,-999,-99.99,,,-99.99,,2013-07-17 19:53:00,
2013-07-17 14:00:00,78.0,-99.9,-100.00,South,185,6.0,23.0,-999,-99.99,,,-99.99,,2013-07-17 20:00:00,
2013-07-17 14:53:00,78.0,-99.9,-100.00,South,185,6.0,23.0,-999,-99.99,,,-99.99,,2013-07-17 20:53:00,
2013-07-17 15:00:00,80.0,-99.9,-100.00,SSW,197,14.0,24.0,-999,-99.99,,,-99.99,,2013-07-17 21:00:00,
2013-07-17 15:53:00,80.0,-99.9,-100.00,SSW,197,14.0,24.0,-999,-99.99,,,-99.99,,2013-07-17 21:53:00,
2013-07-17 16:00:00,84.0,-99.9,-100.00,NE,42,14.0,23.0,-999,-99.99,,,-99.99,,2013-07-17 22:00:00,
2013-07-17 16:53:00,84.0,-99.9,-100.00,NE,42,14.0,23.0,-999,-99.99,,,-99.99,,2013-07-17 22:53:00,
2013-07-17 17:00:00,84.0,-99.9,-100.00,NE,50,17.0,21.0,-999,-99.99,,,-99.99,,2013-07-17 23:00:00,
2013-07-17 17:52:00,84.0,-99.9,-100.00,NE,50,17.0,21.0,-999,-99.99,,,-99.99,,2013-07-17 23:52:00,
2013-07-17 18:00:00,84.0,-99.9,-100.00,SW,229,8.0,18.0,-999,-99.99,,,-99.99,,2013-07-18 00:00:00,
2013-07-17 18:52:00,84.0,-99.9,-100.00,SW,229,8.0,18.0,-999,-99.99,,,-99.99,,2013-07-18 00:52:00,
2013-07-17 19:00:00,82.0,-99.9,-100.00,South,185,3.0,13.0,-999,-99.99,,,-99.99,,2013-07-18 01:00:00,
2013-07-17 19:53:00,82.0,-99.9,-100.00,South,185,3.0,13.0,-999,-99.99,,,-99.99,,2013-07-18 01:53:00,
2013-07-17 20:00:00,78.0,-99.9,-100.00,South,185,5.0,9.0,-999,-99.99,,,-99.99,,2013-07-18 02:00:00,
2013-07-17 20:52:00,78.0,-99.9,-100.00,South,185,5.0,9.0,-999,-99.99,,,-99.99,,2013-07-18 02:52:00,
2013-07-17 21:00:00,73.0,-99.9,-100.00,South,185,2.0,8.0,-999,-99.99,,,-99.99,,2013-07-18 03:00:00,
2013-07-17 21:52:00,73.0,-99.9,-100.00,South,185,2.0,8.0,-999,-99.99,,,-99.99,,2013-07-18 03:52:00,
2013-07-17 22:00:00,69.0,-99.9,-100.00,South,185,2.0,7.0,-999,-99.99,,,-99.99,,2013-07-18 04:00:00,
2013-07-17 22:52:00,69.0,-99.9,-100.00,South,185,2.0,7.0,-999,-99.99,,,-99.99,,2013-07-18 04:52:00,
2013-07-17 23:00:00,69.0,-99.9,-100.00,South,185,4.0,11.0,-999,-99.99,,,-99.99,,2013-07-18 05:00:00,
2013-07-17 23:52:00,69.0,-99.9,-100.00,South,185,4.0,11.0,-999,-99.99,,,-99.99,,2013-07-18 05:52:00,